FW6620 Weather Reports


time (UTC)temp
F
wind
direction
speed
knots
gust
knots
rain 1hr
in
rain 24hr
in
rain mn
in
humidity
%
barometer
mb
20260831023548 90 0 0.0 5.2 0.00 0.00 0.00 61 1014.6
20260831023104 90 68 0.9 5.2 0.00 0.00 0.00 60 1014.5
20260831022547 90 76 0.0 2.6 0.00 0.00 0.00 60 1014.3
20260831022047 91 103 0.0 2.6 0.00 0.00 0.00 60 1014.4
20260831021605 91 55 0.0 7.0 0.00 0.00 0.00 59 1014.2
20260831021048 91 52 1.7 7.0 0.00 0.00 0.00 59 1014.1
20260831020549 91 0 0.0 6.1 0.00 0.00 0.00 58 1014.1
20260831015547 91 0 0.0 5.2 0.00 0.00 0.00 57 1014.0
20260831015047 92 0 1.7 7.0 0.00 0.00 0.00 56 1013.9
20260831014603 92 80 0.9 7.0 0.00 0.00 0.00 54 1013.8
20260831014048 92 74 0.9 3.5 0.00 0.00 0.00 52 1013.7
20260831013547 92 66 0.0 1.7 0.00 0.00 0.00 51 1013.5
20260831013058 92 0 0.0 0.0 0.00 0.00 0.00 52 1013.4
20260831012547 92 0 0.0 0.0 0.00 0.00 0.00 51 1013.4
20260831012047 92 0 0.0 1.7 0.00 0.00 0.00 50 1013.3
20260831011549 93 0 0.0 1.7 0.00 0.00 0.00 50 1013.4
20260831011047 93 0 0.0 1.7 0.00 0.00 0.00 49 1013.3
20260831010547 93 0 0.0 1.7 0.00 0.00 0.00 50 1013.3
20260831010110 93 0 0.0 1.7 0.00 0.00 0.00 49 1013.3
20260831005547 93 0 0.0 1.7 0.00 0.00 0.00 48 1013.3
20260831005047 93 0 0.0 0.9 0.00 0.00 0.00 49 1013.2
20260831004603 93 0 0.0 0.9 0.00 0.00 0.00 48 1013.2
20260831004048 93 0 0.0 0.9 0.00 0.00 0.00 48 1013.1
20260831003548 94 0 0.0 0.9 0.00 0.00 0.00 48 1013.1
20260831003104 94 0 0.0 0.9 0.00 0.00 0.00 48 1013.2
20260831002547 94 0 0.0 1.7 0.00 0.00 0.00 49 1013.1
20260831002047 94 0 0.0 1.7 0.00 0.00 0.00 48 1013.1
20260831001559 94 0 0.0 1.7 0.00 0.00 0.00 48 1013.1
20260831001047 94 0 0.0 2.6 0.00 0.00 0.00 48 1013.1
20260831000546 94 0 0.0 2.6 0.00 0.00 0.00 48 1013.0
20260831000054 95 66 0.0 2.6 0.00 0.00 0.00 48 1013.1
20260830235545 95 0 0.0 3.5 0.00 0.00 0.00 47 1013.1
20260830235047 95 68 0.0 4.3 0.00 0.00 0.00 46 1013.1
20260830234607 95 105 0.9 4.3 0.00 0.00 0.00 46 1013.1
20260830234045 96 130 0.0 2.6 0.00 0.00 0.00 46 1013.2
20260830233545 96 0 0.0 5.2 0.00 0.00 0.00 47 1013.1
20260830233057 96 161 0.9 5.2 0.00 0.00 0.00 47 1013.2
20260830232545 96 0 0.0 2.6 0.00 0.00 0.00 46 1013.1
20260830232045 96 0 0.0 2.6 0.00 0.00 0.00 46 1013.1
20260830231604 96 0 0.0 2.6 0.00 0.00 0.00 45 1013.1
20260830231045 96 54 0.0 3.5 0.00 0.00 0.00 44 1013.1
20260830230546 96 0 0.0 6.1 0.00 0.00 0.00 45 1013.2
20260830230053 97 55 0.0 6.1 0.00 0.00 0.00 45 1013.1
20260830225546 97 54 0.9 6.1 0.00 0.00 0.00 44 1013.1
20260830225046 97 59 0.9 3.5 0.00 0.00 0.00 45 1013.2
20260830224608 97 64 0.0 3.5 0.00 0.00 0.00 44 1013.3
20260830224049 97 0 0.0 3.5 0.00 0.00 0.00 44 1013.3
20260830223546 97 0 0.0 3.5 0.00 0.00 0.00 46 1013.3
20260830223056 97 71 0.0 3.5 0.00 0.00 0.00 44 1013.3
20260830222549 97 68 0.9 3.5 0.00 0.00 0.00 45 1013.3
20260830222045 97 65 0.9 2.6 0.00 0.00 0.00 44 1013.3
20260830221606 97 0 0.0 2.6 0.00 0.00 0.00 45 1013.3
20260830221046 97 65 0.0 5.2 0.00 0.00 0.00 45 1013.4
20260830220546 97 64 0.0 5.2 0.00 0.00 0.00 44 1013.4
20260830220101 97 0 0.9 5.2 0.00 0.00 0.00 45 1013.4
20260830215545 97 74 0.9 5.2 0.00 0.00 0.00 45 1013.6
20260830215048 97 0 0.9 5.2 0.00 0.00 0.00 46 1013.5
20260830214556 97 66 0.9 5.2 0.00 0.00 0.00 44 1013.7
20260830214045 97 75 0.0 3.5 0.00 0.00 0.00 45 1013.7
20260830213546 97 0 0.9 3.5 0.00 0.00 0.00 48 1013.7
20260830213102 97 0 0.0 5.2 0.00 0.00 0.00 49 1013.8
20260830212545 97 0 0.9 6.1 0.00 0.00 0.00 47 1013.8
20260830212046 96 0 1.7 6.1 0.00 0.00 0.00 47 1013.9
20260830211601 96 0 0.0 2.6 0.00 0.00 0.00 48 1014.1
20260830211046 96 0 0.0 5.2 0.00 0.00 0.00 46 1014.1
20260830210546 96 0 0.0 5.2 0.00 0.00 0.00 47 1014.3
20260830210139 96 0 0.9 2.6 0.00 0.00 0.00 49 1014.4
20260830205547 96 0 0.9 3.5 0.00 0.00 0.00 48 1014.4
20260830205046 96 0 0.9 3.5 0.00 0.00 0.00 49 1014.4
20260830204611 97 58 0.0 6.1 0.00 0.00 0.00 48 1014.6
20260830204046 96 0 0.9 7.0 0.00 0.00 0.00 51 1014.7
20260830203546 96 64 0.9 7.0 0.00 0.00 0.00 50 1014.7
20260830203104 96 72 0.9 6.1 0.00 0.00 0.00 50 1014.8
20260830202546 96 60 0.9 6.1 0.00 0.00 0.00 50 1014.8
20260830202046 95 60 1.7 7.0 0.00 0.00 0.00 50 1014.9
20260830201603 96 0 0.9 7.0 0.00 0.00 0.00 51 1014.9
20260830201045 96 0 2.6 7.0 0.00 0.00 0.00 51 1015.0
20260830200545 96 62 0.9 5.2 0.00 0.00 0.00 52 1015.1
20260830200114 96 0 0.9 3.5 0.00 0.00 0.00 52 1015.1
20260830195545 96 58 0.0 5.2 0.00 0.00 0.00 53 1015.3
20260830195046 96 0 0.0 5.2 0.00 0.00 0.00 52 1015.3
20260830194628 95 60 1.7 6.1 0.00 0.00 0.00 52 1015.4
20260830194046 95 57 0.0 6.1 0.00 0.00 0.00 53 1015.5
20260830193547 95 0 0.0 6.1 0.00 0.00 0.00 54 1015.7
20260830193102 95 66 0.9 6.1 0.00 0.00 0.00 54 1015.7
20260830192545 95 52 0.9 6.1 0.00 0.00 0.00 54 1015.8
20260830192045 95 0 0.9 5.2 0.00 0.00 0.00 54 1015.9
20260830191602 94 0 0.9 5.2 0.00 0.00 0.00 55 1015.9
20260830191045 95 66 0.9 3.5 0.00 0.00 0.00 53 1016.1
20260830190545 94 62 0.9 3.5 0.00 0.00 0.00 55 1016.2
20260830190058 94 61 0.9 3.5 0.00 0.00 0.00 56 1016.3
20260830185547 94 0 0.9 3.5 0.00 0.00 0.00 56 1016.3
20260830185046 94 67 0.9 5.2 0.00 0.00 0.00 56 1016.4
20260830184612 94 160 1.7 5.2 0.00 0.00 0.00 55 1016.5
20260830184045 94 74 0.9 5.2 0.00 0.00 0.00 57 1016.5
20260830183547 93 0 0.9 5.2 0.00 0.00 0.00 58 1016.5
20260830183117 93 77 0.9 5.2 0.00 0.00 0.00 57 1016.6
20260830182546 93 0 0.0 3.5 0.00 0.00 0.00 59 1016.7
20260830182046 92 0 0.0 7.0 0.00 0.00 0.00 59 1016.8
20260830181559 92 58 0.9 7.0 0.00 0.00 0.00 58 1016.8
20260830181046 92 57 2.6 7.0 0.00 0.00 0.00 59 1017.0
20260830180545 92 0 0.0 5.2 0.00 0.00 0.00 58 1017.0
20260830180100 92 64 0.9 3.5 0.00 0.00 0.00 59 1017.3
20260830175547 92 65 0.0 3.5 0.00 0.00 0.00 60 1017.4
20260830175048 92 66 0.0 3.5 0.00 0.00 0.00 61 1017.5
20260830174559 92 61 1.7 5.2 0.00 0.00 0.00 60 1017.5
20260830174052 91 0 0.9 5.2 0.00 0.00 0.00 60 1017.8
20260830173548 91 0 0.0 5.2 0.00 0.00 0.00 63 1017.8
20260830173115 91 0 0.0 6.1 0.00 0.00 0.00 63 1017.8
20260830172547 90 0 0.9 6.1 0.00 0.00 0.00 62 1017.8
20260830172050 90 60 0.9 5.2 0.00 0.00 0.00 63 1017.9
20260830171558 90 60 0.0 2.6 0.00 0.00 0.00 65 1018.0
20260830171047 90 61 0.0 5.2 0.00 0.00 0.00 65 1018.0
20260830170550 90 0 0.0 5.2 0.00 0.00 0.00 65 1018.0
20260830170056 90 61 0.9 6.1 0.00 0.00 0.00 65 1018.1
20260830165547 89 0 0.0 6.1 0.00 0.00 0.00 67 1018.0
20260830165047 89 72 0.9 6.1 0.00 0.00 0.00 68 1018.2
20260830164559 88 63 0.9 2.6 0.00 0.00 0.00 69 1018.2
20260830164047 87 0 0.0 2.6 0.00 0.00 0.00 71 1018.3
20260830163548 87 62 0.0 2.6 0.00 0.00 0.00 71 1018.4
20260830163058 87 62 0.0 2.6 0.00 0.00 0.00 71 1018.3
20260830162547 86 0 0.0 2.6 0.00 0.00 0.00 71 1018.3
20260830162046 86 0 0.9 3.5 0.00 0.00 0.00 71 1018.3
20260830161613 86 0 0.0 3.5 0.00 0.00 0.00 71 1018.3
20260830161046 86 0 0.9 3.5 0.00 0.00 0.00 72 1018.4
20260830160547 86 62 0.0 1.7 0.00 0.00 0.00 73 1018.4
20260830155547 85 62 0.0 1.7 0.00 0.00 0.00 73 1018.2
20260830155047 85 0 0.0 1.7 0.00 0.00 0.00 74 1018.2
20260830154557 85 0 0.0 1.7 0.00 0.00 0.00 74 1018.1
20260830154048 85 62 0.0 2.6 0.00 0.00 0.00 74 1018.2
20260830153548 85 0 0.0 2.6 0.00 0.00 0.00 74 1018.2
20260830153055 85 0 0.0 5.2 0.00 0.00 0.00 74 1018.3
20260830152547 84 59 0.9 5.2 0.00 0.00 0.00 75 1018.0
20260830152047 84 0 0.9 5.2 0.00 0.00 0.00 75 1018.1
20260830151601 84 0 0.0 5.2 0.00 0.00 0.00 76 1018.0
20260830151048 84 0 0.0 6.1 0.00 0.00 0.00 79 1018.1
20260830150548 83 0 1.7 6.1 0.00 0.00 0.00 79 1018.2
20260830150112 83 58 0.0 6.1 0.00 0.00 0.00 80 1018.1
20260830145548 83 60 0.9 6.1 0.00 0.00 0.00 81 1018.1
20260830145048 82 0 0.0 5.2 0.00 0.00 0.00 81 1018.1
20260830144557 82 67 0.9 5.2 0.00 0.00 0.00 82 1018.0
20260830144047 82 0 0.0 3.5 0.00 0.00 0.00 83 1018.2
20260830143547 81 54 0.0 3.5 0.00 0.00 0.00 84 1018.1
20260830143104 81 51 0.0 5.2 0.00 0.00 0.00 84 1018.0
20260830142547 81 0 0.0 6.1 0.00 0.00 0.00 85 1018.2
20260830142047 80 58 0.0 6.1 0.00 0.00 0.00 85 1018.2
20260830141601 80 67 0.9 6.1 0.00 0.00 0.00 85 1018.1
20260830141047 80 0 0.0 3.5 0.00 0.00 0.00 86 1018.1
20260830140546 79 59 0.9 3.5 0.00 0.00 0.00 87 1018.1
20260830140100 79 0 0.0 1.7 0.00 0.00 0.00 87 1018.0
20260830135547 79 0 0.0 1.7 0.00 0.00 0.00 88 1018.0
20260830135047 79 0 0.0 1.7 0.00 0.00 0.00 88 1018.0
20260830134604 78 0 0.0 3.5 0.00 0.00 0.00 88 1018.0
20260830134047 78 0 0.0 3.5 0.00 0.00 0.00 88 1017.9
20260830133547 78 0 0.0 2.6 0.00 0.00 0.00 89 1017.9
20260830133100 77 0 0.0 2.6 0.00 0.00 0.00 89 1017.9
20260830132547 77 0 0.0 2.6 0.00 0.00 0.00 89 1017.7
20260830132046 77 0 0.0 2.6 0.00 0.00 0.00 89 1017.8
20260830131619 77 0 0.0 2.6 0.00 0.00 0.00 90 1017.6
20260830131047 76 0 0.0 2.6 0.00 0.00 0.00 90 1017.7
20260830130548 76 0 0.0 0.9 0.00 0.00 0.00 90 1017.6
20260830130101 76 0 0.0 0.0 0.00 0.00 0.00 90 1017.7
20260830125547 76 0 0.0 0.0 0.00 0.00 0.00 90 1017.6
20260830125047 76 0 0.0 0.0 0.00 0.00 0.00 90 1017.6
20260830124554 75 0 0.0 0.0 0.00 0.00 0.00 89 1017.6
20260830124047 75 0 0.0 0.0 0.00 0.00 0.00 90 1017.5
20260830123547 75 0 0.0 0.0 0.00 0.00 0.00 90 1017.5
20260830123104 75 0 0.0 0.0 0.00 0.00 0.00 89 1017.5
20260830122547 75 0 0.0 0.0 0.00 0.00 0.00 89 1017.4
20260830122046 75 0 0.0 0.0 0.00 0.00 0.00 89 1017.3
20260830121559 75 0 0.0 0.0 0.00 0.00 0.00 89 1017.2
20260830121046 75 0 0.0 0.0 0.00 0.00 0.00 88 1017.2
20260830120547 75 0 0.0 0.0 0.00 0.00 0.00 89 1017.2
20260830120100 75 0 0.0 0.0 0.00 0.00 0.00 88 1017.2
20260830115547 75 0 0.0 0.0 0.00 0.00 0.00 89 1017.2
20260830115046 75 0 0.0 0.0 0.00 0.00 0.00 88 1017.1
20260830114610 75 0 0.0 0.0 0.00 0.00 0.00 88 1017.2
20260830114046 76 0 0.0 0.0 0.00 0.00 0.00 87 1017.3
20260830113547 76 0 0.0 0.0 0.00 0.00 0.00 87 1017.1
20260830113106 76 0 0.0 0.0 0.00 0.00 0.00 87 1017.0
20260830112546 76 0 0.0 0.0 0.00 0.00 0.00 87 1017.0
20260830112046 76 0 0.0 0.0 0.00 0.00 0.00 87 1017.0
20260830111601 76 0 0.0 0.0 0.00 0.00 0.00 87 1016.8
20260830111046 76 0 0.0 0.0 0.00 0.00 0.00 87 1017.0
20260830110547 76 0 0.0 0.0 0.00 0.00 0.00 86 1016.8
20260830110100 77 0 0.0 0.0 0.00 0.00 0.00 86 1016.8
20260830105547 77 0 0.0 0.0 0.00 0.00 0.00 86 1016.8
20260830105046 77 0 0.0 0.0 0.00 0.00 0.00 85 1016.8
20260830104623 77 0 0.0 0.0 0.00 0.00 0.00 85 1016.7
20260830104047 77 0 0.0 0.0 0.00 0.00 0.00 84 1016.7
20260830103547 78 0 0.0 0.0 0.00 0.00 0.00 85 1016.7
20260830103102 78 0 0.0 0.0 0.00 0.00 0.00 84 1016.6
20260830102546 78 0 0.0 0.0 0.00 0.00 0.00 83 1016.7
20260830102046 78 0 0.0 0.0 0.00 0.00 0.00 83 1016.6
20260830101556 78 0 0.0 0.0 0.00 0.00 0.00 83 1016.7
20260830101047 78 0 0.0 0.0 0.00 0.00 0.00 83 1016.6
20260830100547 79 0 0.0 0.0 0.00 0.00 0.00 83 1016.6
20260830100059 79 0 0.0 0.0 0.00 0.00 0.00 83 1016.5
20260830095549 79 0 0.0 0.0 0.00 0.00 0.00 83 1016.5
20260830095051 79 0 0.0 0.0 0.00 0.00 0.00 82 1016.5
20260830094602 79 0 0.0 0.9 0.00 0.00 0.00 82 1016.5
20260830094046 79 0 0.0 0.9 0.00 0.00 0.00 82 1016.5
20260830093546 79 0 0.0 0.9 0.00 0.00 0.00 81 1016.6
20260830093058 79 0 0.0 0.0 0.00 0.00 0.00 81 1016.5
20260830092546 79 0 0.0 0.0 0.00 0.00 0.00 81 1016.6
20260830092046 79 0 0.0 0.0 0.00 0.00 0.00 80 1016.5
20260830091611 79 0 0.0 0.0 0.00 0.00 0.00 80 1016.6
20260830091046 80 0 0.0 0.0 0.00 0.00 0.00 80 1016.6
20260830090547 80 0 0.0 0.0 0.00 0.00 0.00 80 1016.5
20260830090106 80 0 0.0 0.0 0.00 0.00 0.00 80 1016.6
20260830085546 80 0 0.0 0.0 0.00 0.00 0.00 79 1016.6
20260830085046 80 0 0.0 1.7 0.00 0.00 0.00 79 1016.5
20260830084559 80 0 0.0 1.7 0.00 0.00 0.00 78 1016.6
20260830084046 80 0 0.0 1.7 0.00 0.00 0.00 79 1016.6
20260830083546 80 0 0.0 0.9 0.00 0.00 0.00 78 1016.6
20260830083058 80 0 0.0 0.9 0.00 0.00 0.00 78 1016.5
20260830082547 80 0 0.0 0.0 0.00 0.00 0.00 78 1016.5
20260830082046 81 0 0.0 0.0 0.00 0.00 0.00 78 1016.5
20260830081604 81 0 0.0 0.9 0.00 0.00 0.00 78 1016.6
20260830081047 81 0 0.0 2.6 0.00 0.00 0.00 77 1016.7
20260830080547 81 0 0.0 2.6 0.00 0.00 0.00 76 1016.6
20260830080108 81 59 0.0 2.6 0.00 0.00 0.00 76 1016.6
20260830075547 81 0 0.0 2.6 0.00 0.00 0.00 76 1016.8
20260830075047 81 58 0.0 2.6 0.00 0.00 0.00 76 1016.8
20260830074610 81 58 0.0 2.6 0.00 0.00 0.00 75 1016.8
20260830074049 82 0 0.0 2.6 0.00 0.00 0.00 75 1017.0
20260830073548 82 0 0.0 3.5 0.00 0.00 0.00 75 1016.9
20260830073112 82 58 0.9 5.2 0.00 0.00 0.00 74 1016.9
20260830072547 82 0 0.9 7.0 0.00 0.00 0.00 74 1017.0
20260830072047 82 62 1.7 7.0 0.00 0.00 0.00 74 1016.9
20260830071607 82 0 0.9 6.1 0.00 0.00 0.00 73 1017.0
20260830071046 82 61 0.0 2.6 0.00 0.00 0.00 73 1017.0
20260830070548 83 0 0.0 3.5 0.00 0.00 0.00 73 1017.1
20260830070109 83 60 0.0 3.5 0.00 0.00 0.00 73 1017.1
20260830065548 83 60 0.0 2.6 0.00 0.00 0.00 73 1017.1
20260830065048 83 0 0.9 2.6 0.00 0.00 0.00 72 1017.0
20260830064634 83 0 0.0 3.5 0.00 0.00 0.00 72 1017.0
20260830064047 83 0 0.0 5.2 0.00 0.00 0.00 72 1016.9
20260830063551 83 0 0.9 6.1 0.00 0.00 0.00 72 1016.8
20260830063058 83 55 0.0 6.1 0.00 0.00 0.00 72 1017.0
20260830062547 84 56 0.9 6.1 0.00 0.00 0.00 71 1016.8
20260830062046 84 0 0.9 3.5 0.00 0.00 0.00 71 1016.8
20260830061631 84 0 0.0 3.5 0.00 0.00 0.00 71 1016.8
20260830061046 84 59 0.0 2.6 0.00 0.00 0.00 71 1016.9
20260830060548 84 58 0.0 2.6 0.00 0.00 0.00 71 1016.8
20260830060108 84 0 0.0 2.6 0.00 0.00 0.00 71 1016.8
20260830055546 84 0 0.9 5.2 0.00 0.00 0.00 71 1016.7
20260830055047 84 58 0.0 5.2 0.00 0.00 0.00 71 1016.8
20260830054603 85 0 0.9 5.2 0.00 0.00 0.00 70 1016.8
20260830054047 85 0 0.0 5.2 0.00 0.00 0.00 70 1016.8
20260830053546 85 60 0.0 5.2 0.00 0.00 0.00 70 1016.8
20260830053100 85 68 0.9 5.2 0.00 0.00 0.00 70 1016.8
20260830052546 85 57 0.0 3.5 0.00 0.00 0.00 69 1016.7
20260830052046 85 0 0.0 6.1 0.00 0.00 0.00 69 1016.7
20260830051555 86 0 0.0 6.1 0.00 0.00 0.00 69 1016.7
20260830051047 86 60 0.9 6.1 0.00 0.00 0.00 69 1016.8
20260830050546 86 0 0.0 5.2 0.00 0.00 0.00 68 1016.8
20260830050106 86 0 0.0 6.1 0.00 0.00 0.00 68 1016.7
20260830045546 86 60 0.9 6.1 0.00 0.00 0.00 68 1016.7
20260830045046 86 61 0.0 3.5 0.00 0.00 0.00 68 1016.7
20260830044613 86 61 0.0 5.2 0.00 0.00 0.00 68 1016.7
20260830044046 87 62 0.9 5.2 0.00 0.00 0.00 68 1016.7
20260830043546 87 0 0.0 3.5 0.00 0.00 0.00 68 1016.7
20260830043059 87 59 0.0 3.5 0.00 0.00 0.00 68 1016.7
20260830042546 87 0 0.0 5.2 0.00 0.00 0.00 68 1016.7
20260830042047 87 58 0.9 6.1 0.00 0.00 0.00 67 1016.8
20260830041622 87 60 0.9 6.1 0.00 0.00 0.00 67 1016.7
20260830041050 87 0 0.0 7.0 0.00 0.00 0.00 67 1016.7
20260830040546 88 0 0.9 7.0 0.00 0.00 0.00 67 1016.7
20260830040110 88 55 0.0 6.1 0.00 0.00 0.00 66 1016.8
20260830035547 88 55 0.0 6.1 0.00 0.00 0.00 66 1016.6
20260830035047 88 59 0.9 6.1 0.00 0.00 0.00 66 1016.6
20260830034559 88 0 0.0 6.1 0.00 0.00 0.00 66 1016.5
20260830034049 88 83 0.9 7.8 0.00 0.00 0.00 66 1016.6
20260830033547 88 64 0.9 7.8 0.00 0.00 0.00 65 1016.6
20260830033112 89 0 0.0 6.1 0.00 0.00 0.00 65 1016.5
20260830032546 89 0 0.9 6.1 0.00 0.00 0.00 65 1016.4
20260830032046 89 0 1.7 6.1 0.00 0.00 0.00 64 1016.3
20260830031559 89 0 1.7 6.1 0.00 0.00 0.00 64 1016.3
20260830031046 89 83 0.0 4.3 0.00 0.00 0.00 63 1016.1
20260830030546 90 0 0.9 5.2 0.00 0.00 0.00 62 1016.1
20260830030100 90 56 0.9 5.2 0.00 0.00 0.00 61 1016.1
20260830025545 90 53 0.0 5.2 0.00 0.00 0.00 60 1016.0
20260830025045 90 53 0.9 5.2 0.00 0.00 0.00 59 1016.0
20260830024625 90 0 0.9 3.5 0.00 0.00 0.00 58 1015.8
20260830024049 90 57 0.0 6.1 0.00 0.00 0.00 57 1015.8